CAPE
0 21 0 1 0 0 1 0 0 0 0 0 0 0 0 0 0 0 0 9 21 120 114 86 106 40 67 89 67 159 313 833 639 449 292 205 159 113 110 88 101 148 268 378
0 14 1 0 0 0 2 0 0 0 0 3 0 0 0 0 0 0 0 0 0 7 60 67 94 50 85 63 68 79 199 449 356 353 259 240 283 397 305 226 171 206 202 273
3 0 0 0 0 1 0 0 0 0 0 0 1 0 0 0 0 0 0 0 0 1 69 127 320 193 11 61 58 95 156 358 363 430 195 40 9 44 160 370 378 302 259 317
0 0 0 0 0 0 0 0 0 0 0 2 0 0 0 0 0 0 0 0 0 0 0 28 144 249 4 94 110 84 67 175 198 166 45 0 3 0 74 87 272 167 123 176
0 0 0 0 0 0 5 0 0 0 0 0 0 0 0 0 0 0 0 0 0 0 0 0 0 18 249 151 33 183 45 72 27 48 6 16 20 17 8 12 32 14 4 65
0 0 0 0 0 0 0 18 27 26 11 0 0 0 0 0 0 0 0 0 0 0 0 0 0 0 0 46 277 342 223 102 110 100 85 58 27 10 16 15 2 5 1 8
0 0 0 0 0 8 25 19 5 3 0 0 0 0 0 0 0 0 0 0 0 0 0 0 0 0 0 0 0 164 413 340 272 252 262 119 102 62 87 32 23 41 71 61
0 0 0 0 16 16 11 6 20 2 0 1 0 0 0 0 0 0 0 0 0 0 0 0 0 0 0 0 0 0 12 328 447 431 337 311 239 243 235 197 186 164 113 47
0 0 0 0 8 18 6 1 6 2 0 0 2 0 0 0 0 0 0 0 0 0 0 0 0 0 0 0 0 0 0 0 212 390 347 309 354 381 331 212 194 100 67 41
0 0 0 2 13 3 6 3 20 6 5 0 0 0 0 0 0 0 0 0 0 0 0 0 0 0 0 0 0 0 0 0 18 168 271 300 320 341 322 252 157 64 11 0
2 0 0 0 11 1 10 4 6 0 0 12 0 0 0 0 0 0 0 0 0 0 0 0 0 0 0 0 0 0 0 0 0 68 111 99 77 76 68 55 1 0 0 0
0 6 0 0 0 1 7 0 0 4 5 0 0 0 0 0 0 0 0 0 0 0 0 0 0 0 0 0 0 0 0 0 0 0 3 11 0 0 0 0 0 0 0 0
0 0 0 0 1 0 1 1 1 0 0 0 9 1 0 0 0 0 0 0 0 0 0 0 0 0 0 0 0 0 0 0 0 0 0 0 0 0 0 0 0 0 0 0
0 0 0 0 1 0 0 0 2 0 0 0 0 0 0 0 0 0 0 0 0 0 0 0 0 0 0 0 0 0 0 0 0 0 0 0 0 0 0 0 0 0 0 0
0 0 0 0 0 0 0 0 0 0 0 0 1 0 0 0 0 0 0 0 0 0 0 0 0 0 0 0 0 0 0 0 0 0 0 0 0 0 0 0 0 0 0 0
0 0 0 0 0 0 0 0 0 0 0 0 0 0 0 0 0 0 0 0 0 0 0 0 0 0 0 0 0 0 0 0 0 0 0 0 0 0 0 0 0 0 0 0
0 0 0 0 0 0 0 0 0 1 2 1 0 4 1 0 0 0 0 0 0 0 0 0 0 0 0 0 0 0 0 0 0 0 0 0 0 0 0 0 0 0 0 0
0 0 0 0 0 0 0 0 0 0 0 0 0 0 0 0 0 0 0 0 0 0 0 0 0 0 0 0 0 0 0 0 0 0 0 0 0 0 0 0 0 0 0 0
0 0 0 0 0 0 0 0 0 0 0 0 0 1 2 0 0 0 0 0 0 0 0 0 0 0 0 0 0 0 0 0 0 0 0 0 0 0 0 0 0 0 0 0
0 0 0 0 0 0 0 0 0 0 0 0 0 0 1 0 8 0 0 0 0 0 0 0 0 0 0 0 0 0 0 0 0 0 0 0 0 0 0 0 0 0 0 0
0 0 0 0 0 0 0 0 0 0 0 0 0 1 1 0 2 0 0 0 0 0 0 0 0 0 0 0 0 0 0 0 0 0 0 0 0 0 0 0 0 0 0 0
0 0 0 0 0 0 0 0 0 0 0 0 1 1 2 0 0 1 0 0 0 0 0 0 0 0 0 0 0 0 0 0 0 0 0 0 0 0 0 0 0 0 0 0
0 0 0 0 0 0 0 0 0 0 0 0 0 0 0 0 0 0 0 0 0 0 0 0 0 0 0 0 0 0 0 0 0 0 0 0 0 0 0 0 0 0 0 0
0 0 0 0 0 0 0 0 0 0 0 0 0 0 0 0 0 0 0 0 0 0 0 0 0 0 0 0 0 0 0 0 0 0 0 0 0 0 1 1 0 0 0 0
0 0 0 0 0 0 0 0 0 0 0 0 0 0 0 0 0 0 0 0 0 0 0 0 0 0 0 0 0 0 0 0 0 0 0 0 0 0 0 0 0 0 0 0
0 0 0 0 0 0 0 0 0 0 0 0 0 0 0 0 0 0 0 0 0 0 0 0 0 0 0 0 0 0 0 0 0 0 0 0 0 0 0 0 0 0 0 0
CIN
0 -1 0 -15 -5 0 0 0 0 0 0 0 0 0 0 0 0 0 0 -106 -66 -24 -22 -28 -7 -13 -5 -19 -19 -54 -10 -2 -5 -17 -29 -46 -55 -77 -105 -110 -96 -54 -17 -1
-1 -1 -4 0 0 0 0 0 0 0 0 0 0 0 0 0 0 0 0 0 0 -87 -51 -27 -14 -19 -5 -25 -30 -51 -39 -48 -82 -48 -42 -19 -6 -3 -17 -40 -29 -25 -22 -12
0 -1 0 0 0 -1 0 -1 0 0 0 0 0 0 0 0 0 0 0 0 0 -61 -88 -63 -20 -48 -13 -2 -31 -40 -24 -18 -42 -44 -47 -110 -52 -82 -31 -14 -13 -27 -38 -30
0 0 0 0 0 0 0 0 0 0 0 0 0 0 0 0 0 0 0 0 0 0 0 -167 -89 -17 -104 -77 -16 -59 -68 -17 -28 -86 -132 0 -134 -22 -52 -24 -24 -51 -85 -77
0 0 0 0 0 0 -3 0 0 0 0 0 0 0 0 0 0 0 -1 0 0 0 0 0 0 -157 -40 -23 -69 -44 -72 -58 -83 -130 -167 -119 -101 -96 -52 -28 -61 -105 -186 -126
0 0 0 0 0 0 0 -7 -6 -1 -1 0 0 -1 0 0 0 0 0 0 -27 0 0 0 0 0 0 -138 -46 -36 -29 -44 -59 -18 -52 -60 -78 -64 -15 -86 -74 -145 -47 -121
0 0 0 0 0 -13 -11 -5 -1 0 0 0 0 0 0 0 0 0 0 0 0 0 0 0 0 0 0 0 0 -134 -60 -47 -28 -21 -30 -38 -55 -41 -32 -63 -67 -97 -74 -113
0 0 0 0 -6 -4 -2 -4 -2 -2 -2 -1 0 0 0 0 0 0 0 0 0 0 0 0 0 0 0 0 0 0 -59 -56 -61 -60 -53 -48 -24 -28 -38 -30 -37 -54 -97 -138
0 0 0 0 -19 -10 -7 -2 -26 -8 0 -1 -1 0 0 0 0 0 0 0 0 0 0 0 0 0 0 0 0 0 0 0 -100 -78 -78 -63 -59 -51 -55 -55 -59 -101 -133 -170
0 0 0 -9 -27 -6 -7 -17 -12 -16 -6 -1 0 0 0 0 0 0 0 0 0 0 0 0 0 0 0 0 0 0 0 0 -198 -147 -105 -91 -89 -76 -76 -90 -113 -169 -193 0
-2 -1 0 0 -3 -1 -4 -7 0 0 -1 -5 0 0 0 0 0 0 0 0 0 0 0 0 0 0 0 0 0 0 0 0 0 -224 -203 -190 -189 -185 -211 -202 -6 0 0 0
-1 -1 0 0 0 -6 -1 -1 0 -6 -4 0 -1 -1 0 0 0 0 0 0 0 0 0 0 0 0 0 0 0 0 0 0 0 -2 -302 -267 -15 0 0 0 0 0 0 0
0 0 0 0 -1 -10 -1 -1 0 0 0 0 -5 -2 0 0 0 0 0 0 0 0 0 0 0 0 0 0 0 0 0 0 0 0 0 0 0 0 0 0 0 0 0 0
0 0 0 0 -4 0 0 0 0 0 0 0 -1 0 0 0 0 0 0 0 0 0 0 0 0 0 0 0 0 0 0 0 0 0 0 0 0 0 0 0 0 0 0 0
0 0 0 0 0 0 0 0 0 0 0 0 0 0 0 0 0 0 0 0 0 0 0 0 0 0 0 0 0 0 0 0 0 0 0 0 0 0 0 0 0 0 0 0
0 0 0 0 0 0 0 0 0 0 0 0 0 0 0 0 0 0 0 0 0 0 0 0 0 0 0 0 0 0 0 0 0 0 0 0 0 0 0 0 0 0 0 0
0 0 0 0 0 0 0 -1 0 0 0 -1 0 -1 -1 0 0 0 0 0 0 0 0 0 0 0 0 0 0 0 0 0 0 0 0 0 0 0 0 0 0 0 0 0
0 0 0 0 0 0 0 0 0 -1 0 0 0 0 0 0 0 0 0 0 0 0 0 0 0 0 0 0 0 0 0 0 0 0 0 0 0 0 0 0 0 0 0 0
0 0 0 0 0 0 0 0 0 0 0 0 0 0 0 0 0 0 0 0 0 0 0 0 0 0 0 0 0 0 0 0 0 0 0 0 0 0 0 0 0 0 0 0
0 0 0 0 0 0 0 0 0 0 0 0 0 0 0 0 -2 0 0 0 0 0 0 0 0 0 0 0 0 0 0 0 0 0 0 0 0 0 0 0 0 0 0 0
0 0 0 0 0 0 0 0 0 0 0 0 0 0 0 0 0 0 0 0 0 0 0 0 0 0 0 0 0 0 0 0 0 0 0 0 0 0 0 0 0 0 0 0
0 0 0 0 0 0 0 0 0 0 0 0 0 0 0 0 0 0 0 0 0 0 0 0 0 0 0 0 0 0 0 0 0 0 0 0 0 0 0 0 0 0 0 0
0 0 0 0 0 0 0 0 0 0 0 0 0 0 0 0 0 0 0 0 0 0 0 0 0 0 0 0 0 0 0 0 0 0 0 0 0 0 0 0 0 0 0 0
0 0 0 0 0 0 0 0 0 0 0 0 0 0 0 0 0 0 0 0 0 0 0 0 0 0 0 0 0 0 0 0 0 0 0 0 0 0 0 0 0 0 0 0
0 0 0 0 0 0 0 0 0 0 0 0 0 0 0 0 0 0 0 0 0 0 0 0 0 0 0 0 0 0 0 0 0 0 0 0 0 0 0 0 0 0 0 0
0 0 0 0 0 0 0 0 0 0 0 0 0 0 0 0 0 0 0 0 0 0 0 0 0 0 0 0 0 0 0 0 0 0 0 0 0 0 0 0 0 0 0 0
Wind_Speed
14 16 16 17 17 19 21 24 29 25 24 24 25 29 29 27 28 29 28 29 25 23 21 16 21 9 12 22 31 25 22 24 24 22 21 20 18 20 21 24 24 23 25 23
14 13 16 17 17 17 16 20 21 21 22 23 22 31 32 27 27 25 26 27 27 24 18 17 15 19 24 27 31 23 22 23 22 22 21 20 19 20 22 23 23 24 24 23
12 8 17 18 18 18 19 20 20 22 20 23 25 30 27 27 26 23 24 24 27 31 29 21 18 11 22 32 29 19 27 21 22 20 20 20 21 23 24 22 25 25 24 27
10 9 11 19 19 19 21 18 19 18 17 21 20 23 30 25 25 27 25 26 25 28 25 24 17 20 27 38 33 42 32 23 20 23 25 26 23 32 31 29 28 27 27 28
14 11 8 6 15 21 22 21 23 21 21 22 21 24 18 21 29 30 29 27 26 26 25 24 20 15 17 17 17 42 27 30 28 31 35 38 38 30 35 35 34 30 29 30
10 11 9 8 9 19 18 19 21 21 24 27 26 26 23 23 28 29 29 28 27 24 23 22 21 20 17 16 14 24 22 19 13 17 24 15 23 33 26 30 31 36 32 29
13 13 11 10 8 9 19 23 28 29 30 32 24 28 30 22 19 22 27 32 31 28 27 24 21 19 17 16 15 14 14 14 15 16 15 15 20 15 12 20 17 18 23 24
18 19 17 14 11 8 3 23 27 32 34 33 24 30 24 19 19 18 24 26 27 30 28 26 23 22 20 18 16 15 14 15 12 10 11 12 13 12 11 12 12 12 12 11
17 19 16 15 13 10 7 10 21 25 26 32 28 27 27 19 20 20 18 21 24 23 23 27 21 22 22 20 18 17 16 15 14 13 13 13 11 10 10 9 9 11 11 12
16 19 18 18 16 12 8 11 15 22 26 33 30 29 28 23 21 19 16 18 19 20 19 23 28 29 24 22 21 20 17 16 15 14 15 15 14 15 14 13 13 14 15 14
15 18 20 17 19 17 12 8 14 18 23 25 28 26 19 21 21 21 19 15 15 17 17 18 21 23 23 20 21 20 18 16 14 14 14 14 15 16 17 17 16 14 13 13
15 16 21 20 16 13 12 12 10 22 17 20 22 21 17 18 19 19 17 13 11 11 14 15 14 16 18 21 22 21 19 17 16 15 14 13 13 15 17 17 15 13 12 11
15 18 23 24 22 21 18 14 14 19 19 22 23 20 13 14 16 14 14 13 12 11 11 12 12 13 14 14 16 18 17 16 16 15 14 14 14 13 13 13 12 11 11 10
15 17 19 22 20 15 13 11 12 14 16 19 22 19 16 18 17 15 13 12 11 11 11 12 12 12 11 10 11 11 12 13 13 14 14 13 12 12 11 11 11 11 10 9
16 18 19 17 17 13 11 12 12 13 13 12 17 22 24 21 20 17 14 11 10 10 11 12 12 12 12 11 10 10 10 11 12 13 14 14 15 15 15 14 13 11 10 10
15 18 20 23 21 21 19 15 13 10 11 12 25 27 29 32 26 22 18 16 16 16 17 15 13 13 13 14 14 15 15 14 15 16 16 16 16 15 15 14 11 10 9 9
16 18 20 27 23 23 25 20 17 14 13 9 3 23 26 28 27 26 25 24 25 25 23 20 18 16 15 15 15 17 17 17 18 18 16 15 15 13 12 12 11 11 9 9
17 17 18 21 21 29 21 19 18 17 14 11 8 25 27 28 29 28 27 28 28 27 25 23 20 19 18 18 18 17 17 17 17 18 18 17 17 16 15 13 13 13 12 12
16 16 18 22 23 20 19 18 17 15 13 12 10 20 23 24 20 17 21 23 25 25 25 24 23 23 23 23 23 23 22 22 21 20 19 17 15 14 15 16 15 14 14 13
15 16 16 19 22 25 21 17 16 14 14 12 10 14 22 21 17 21 25 25 24 24 26 27 27 26 26 27 27 28 27 26 25 23 21 18 16 15 14 15 14 14 13 13
14 14 15 16 18 16 14 15 18 19 19 14 12 10 20 20 21 24 25 23 24 24 25 26 26 27 27 29 30 30 30 30 28 23 19 18 18 18 15 13 14 14 13 13
13 15 15 16 17 20 15 16 15 15 13 11 8 7 5 23 25 24 24 24 23 22 22 22 23 23 24 26 28 30 30 28 25 21 19 16 15 15 14 12 12 12 12 12
11 12 13 12 13 14 14 12 12 13 13 12 8 6 7 7 27 26 27 26 24 22 22 22 22 22 22 24 25 27 26 25 22 18 16 13 11 11 11 10 10 10 11 13
10 10 10 11 12 7 7 9 11 12 12 11 7 5 4 2 21 28 28 26 25 23 22 22 23 23 23 24 23 24 23 22 20 17 14 11 10 9 9 11 11 11 12 13
10 12 9 7 6 9 7 8 10 12 12 12 10 7 3 3 4 27 27 28 26 23 22 21 21 22 22 23 22 23 22 20 18 15 13 11 12 11 10 12 12 12 13 13
8 8 9 10 12 12 13 12 12 12 13 15 15 13 8 2 8 8 28 26 25 23 21 20 21 21 21 22 22 21 20 18 15 13 12 11 11 12 12 12 13 15 16 15
Wind_Direction
184 177 209 229 232 243 243 239 230 246 251 259 246 239 243 240 238 234 234 232 230 235 236 238 233 230 206 206 224 218 216 219 221 223 225 230 233 238 242 245 250 255 256 261
118 99 246 257 257 269 277 253 261 266 278 260 255 239 236 240 238 239 237 234 234 236 235 238 243 234 227 226 229 226 228 226 222 227 231 237 239 246 248 250 256 257 260 265
146 74 308 285 282 279 273 268 270 272 277 271 255 238 243 241 242 244 243 239 241 238 236 242 241 221 246 247 234 224 233 234 230 231 233 240 248 250 256 258 257 261 265 266
135 124 351 311 298 299 279 285 281 279 283 272 257 251 243 244 239 242 243 242 243 243 247 244 242 247 249 224 231 217 240 250 236 234 239 249 258 261 260 260 260 265 269 268
93 108 118 141 318 297 290 285 271 270 275 271 263 257 257 245 242 242 243 247 249 249 252 254 256 250 251 238 201 232 245 246 251 250 247 260 253 257 262 264 263 268 271 272
81 75 84 71 1 305 297 286 270 271 270 254 255 253 258 253 247 242 245 248 249 250 254 257 260 262 258 253 222 252 250 247 209 196 252 251 254 250 263 267 259 260 269 279
66 63 60 58 53 343 290 272 263 263 255 254 269 257 253 266 267 257 251 248 252 254 251 252 254 256 257 253 248 250 251 248 233 214 222 224 259 251 237 259 258 267 274 277
60 48 54 55 55 53 342 277 266 259 255 257 270 258 265 280 273 270 261 256 261 262 252 253 257 260 258 257 255 253 255 262 258 245 236 245 240 246 249 248 251 260 264 271
58 52 51 55 57 67 61 298 278 269 267 257 260 266 275 282 268 274 266 269 265 270 249 252 260 262 257 255 251 251 254 260 264 263 264 263 262 258 256 255 260 273 280 284
65 50 58 56 56 70 89 354 293 267 262 252 256 258 258 273 271 276 270 277 269 269 264 263 260 264 258 256 254 252 253 256 263 268 269 270 270 271 275 278 281 282 283 282
69 58 53 51 53 51 66 105 306 288 267 258 251 252 280 275 279 273 279 280 274 267 267 273 269 269 262 254 253 250 253 256 261 267 272 273 274 275 277 280 283 285 284 282
72 64 47 45 54 68 81 82 359 272 278 265 265 256 296 295 293 288 279 285 288 284 283 281 286 273 271 261 253 250 254 258 263 269 272 275 277 278 280 282 285 286 284 283
71 63 46 49 60 66 80 96 110 262 279 268 261 263 302 316 316 301 287 286 286 289 292 296 296 291 284 283 265 254 257 261 265 267 270 274 278 283 286 286 285 285 285 283
74 68 55 46 46 63 72 100 125 142 154 283 266 271 284 298 306 310 298 298 294 298 302 302 302 300 304 303 289 279 272 270 268 269 271 274 277 284 287 289 288 287 287 286
76 66 61 58 57 67 87 94 120 146 153 143 298 269 271 290 295 296 295 300 298 307 310 307 304 303 302 301 298 293 288 279 271 270 272 275 281 284 284 284 284 284 283 282
83 74 69 61 61 71 80 94 105 123 167 179 278 282 264 269 278 282 284 282 284 292 299 301 301 301 295 292 290 285 283 281 279 276 278 278 280 281 282 282 281 281 280 279
92 81 68 59 66 73 72 76 83 90 108 135 85 290 283 276 275 273 275 272 273 273 280 286 288 289 293 297 294 289 286 286 283 282 283 282 281 281 279 278 277 275 273 273
92 84 76 67 66 57 71 74 80 81 89 97 90 299 294 288 276 276 278 274 275 278 279 284 288 291 294 294 294 294 290 287 284 283 282 281 279 278 277 275 274 275 276 278
93 89 75 64 61 67 75 75 72 71 78 87 101 333 302 301 291 298 291 285 282 282 283 284 286 289 290 290 290 290 289 288 285 281 279 277 271 273 272 272 272 274 277 278
94 88 79 69 59 56 69 73 68 72 63 86 98 12 318 318 306 294 298 291 291 294 288 284 286 288 289 290 290 288 288 287 286 284 279 274 272 271 269 270 270 274 272 276
94 88 81 73 64 70 85 74 75 61 58 78 82 76 326 317 305 291 296 301 298 299 292 289 291 290 291 292 290 287 287 285 286 286 282 278 274 273 274 273 275 276 278 276
92 83 78 75 66 58 89 79 67 57 55 65 71 69 77 309 299 304 310 307 303 300 294 300 295 298 299 299 294 288 288 289 290 288 283 279 277 277 277 273 277 277 273 271
96 101 84 93 81 82 85 74 57 54 46 49 54 59 38 17 298 298 297 302 304 306 303 301 305 306 305 305 303 295 292 294 294 291 286 279 274 276 275 275 274 271 271 274
111 109 95 84 85 105 89 70 61 49 45 47 49 36 34 4 310 292 288 292 293 299 304 307 303 301 306 308 314 307 303 297 295 291 286 279 275 277 281 281 273 269 268 272
91 94 101 100 105 81 84 69 58 47 38 29 25 17 340 228 202 289 288 282 288 295 304 310 313 314 312 316 320 316 310 300 299 296 292 285 284 284 284 282 276 273 275 277
124 104 91 76 83 75 61 66 53 40 31 30 30 29 38 135 190 184 278 285 286 293 302 311 316 316 315 315 316 318 319 320 315 304 299 293 291 289 289 286 285 283 283 283